Regional Weather Roundup
Issued by NWS

Home | Current Version | Previous Version | Text Only | Print | Product List | Glossary Off
Versions: 1 2 3 4 5 6 7 8 9 10 11 12 13 14 15 16 17 18 19 20 21 22 23 24 25 26 27 28 29 30 31 32 33 34 35 36 37 38 39 40 41 42 43 44 45 46 47 48 49 50

837
ASUS45 KCYS 251310
RWRWY

WYOMING REGIONAL WEATHER ROUNDUP
NATIONAL WEATHER SERVICE CHEYENNE WY
700 AM MDT MON SEP 25 2017

NOTE:  "FAIR" INDICATES FEW OR NO CLOUDS BELOW 12,000 FEET
WITH NO SIGNIFICANT WEATHER AND/OR OBSTRUCTIONS TO VISIBILITY.

WYZ001-251400-
YELLOWSTONE NATIONAL PARK

CITY           SKY/WX    TMP DP  RH WIND       PRES   REMARKS
LK YELLOWSTONE NOT AVBL
W YELLOWSTONE  NOT AVBL

$$
WYZ002>013-054>058-071-098>099-251400-
NORTHERN WYOMING

CITY           SKY/WX    TMP DP  RH WIND       PRES   REMARKS
JACKSON        CLOUDY    34  32  92 CALM      30.12R
CODY           LGT RAIN  40  36  86 S6        30.11S
GREYBULL       LGT RAIN  44  44 100 SE5       30.10S
WORLAND        CLOUDY    43  42  97 S3        30.10S
SHERIDAN       LGT RAIN  43  43 100 SE3       30.12R
BUFFALO        LGT RAIN  39  37  92 SE3       30.12S
GILLETTE       CLOUDY    40  40 100 SW3       30.12S
HULETT         DRIZZLE   39  37  93 CALM      30.13S
NEWCASTLE      RAIN      39  39 100 CALM      30.14S

$$
WYZ014>020-022>026-101>103-251400-
CENTRAL WYOMING

CITY           SKY/WX    TMP DP  RH WIND       PRES   REMARKS
BIG PINEY      CLOUDY    33  33 100 CALM      30.11S
PINEDALE       CLOUDY    32  32 100 CALM      30.13R
DUBOIS         LGT SNOW  32  30  93 CALM      30.10S VSB 3/4
LANDER         CLOUDY    37  36  96 E5        30.11R WCI  33
RIVERTON       CLOUDY    37  37 100 CALM      30.12S
CASPER         CLOUDY    35  34  96 CALM      30.11S
DOUGLAS        CLOUDY    39  36  89 N3        30.12S

$$
WYZ021-027>030-104>119-251400-
SOUTHERN WYOMING

CITY           SKY/WX    TMP DP  RH WIND       PRES   REMARKS
EVANSTON       FOG       33  33 100 SW5       30.14R VSB 1/4 WCI  29
FORT BRIDGER   CLOUDY    36  36 100 SW8       30.16R WCI  29
ROCK SPRINGS   CLOUDY    35  34  96 CALM      30.12R
DIXON          CLOUDY    35  33  92 CALM      30.16R
RAWLINS        MOCLDY    35  32  88 CALM      30.11S
SARATOGA       FOG       32  32 100 CALM      30.12S VSB 1/2
LARAMIE        FOG       28  27  96 SW6       30.11R VSB 1/2 WCI  22
CHEYENNE       CLOUDY    37  36  96 NW3       30.11F FOG
TORRINGTON     CLOUDY    42  41  96 NE5       30.11R
PINE BLUFFS    CLOUDY    39  39 100 MISG      30.12S

$$




USA.gov is the U.S. government's official web portal to all federal, state and local government web resources and services.